| time (UTC) | temp C | wind direction | speed KPH | gust KPH | rain 1hr cm | rain 24hr cm | rain mn cm | humidity % | barometer mb |
| 20260507144555 | 6 | 345 | 11.3 | 19.3 | 0.00 | 0.00 | 0.00 | 44 | 1011.3 |
| 20260507143057 | 5 | 340 | 11.3 | 16.1 | 0.00 | 0.00 | 0.00 | 48 | 1011.3 |
| 20260507141556 | 5 | 333 | 8.0 | 12.9 | 0.00 | 0.00 | 0.00 | 55 | 1011.2 |
| 20260507140106 | 3 | 331 | 8.0 | 16.1 | 0.00 | 0.00 | 0.00 | 58 | 1011.2 |
| 20260507134556 | 2 | 313 | 6.4 | 12.9 | 0.00 | 0.00 | 0.00 | 63 | 1011.1 |
| 20260507133107 | 2 | 307 | 6.4 | 12.9 | 0.00 | 0.00 | 0.00 | 65 | 1011.2 |
| 20260507131557 | 1 | 300 | 6.4 | 8.0 | 0.00 | 0.00 | 0.00 | 69 | 1011.0 |
| 20260507130110 | 0 | 300 | 1.6 | 4.8 | 0.00 | 0.00 | 0.00 | 77 | 1011.1 |
| 20260507124634 | -1 | 300 | 3.2 | 4.8 | 0.00 | 0.00 | 0.00 | 81 | 1011.1 |
| 20260507123057 | -2 | 306 | 3.2 | 8.0 | 0.00 | 0.00 | 0.00 | 83 | 1010.9 |
| 20260507121600 | -3 | 0 | 0.0 | 1.6 | 0.00 | 0.00 | 0.00 | 85 | 1010.8 |
| 20260507120057 | -5 | 0 | 0.0 | 4.8 | 0.00 | 0.00 | 0.00 | 85 | 1010.7 |
| 20260507114613 | -5 | 304 | 1.6 | 6.4 | 0.00 | 0.00 | 0.00 | 85 | 1010.4 |
| 20260507113058 | -6 | 304 | 3.2 | 6.4 | 0.00 | 0.00 | 0.00 | 84 | 1010.6 |
| 20260507111558 | -6 | 304 | 1.6 | 3.2 | 0.00 | 0.00 | 0.00 | 84 | 1010.6 |
| 20260507110059 | -6 | 304 | 1.6 | 3.2 | 0.00 | 0.00 | 0.00 | 84 | 1010.7 |
| 20260507104600 | -7 | 304 | 1.6 | 4.8 | 0.00 | 0.00 | 0.00 | 85 | 1011.0 |
| 20260507103058 | -7 | 304 | 1.6 | 4.8 | 0.00 | 0.00 | 0.00 | 85 | 1011.0 |
| 20260507101559 | -6 | 304 | 3.2 | 4.8 | 0.00 | 0.00 | 0.00 | 84 | 1011.0 |
| 20260507100057 | -7 | 304 | 3.2 | 6.4 | 0.00 | 0.00 | 0.00 | 83 | 1011.2 |
| 20260507094555 | -7 | 304 | 1.6 | 4.8 | 0.00 | 0.00 | 0.00 | 84 | 1011.1 |
| 20260507093056 | -6 | 304 | 3.2 | 4.8 | 0.00 | 0.00 | 0.00 | 83 | 1011.0 |
| 20260507091559 | -6 | 304 | 1.6 | 3.2 | 0.00 | 0.00 | 0.00 | 84 | 1011.1 |
| 20260507090105 | -6 | 0 | 0.0 | 3.2 | 0.00 | 0.00 | 0.00 | 85 | 1011.1 |
| 20260507084556 | -7 | 0 | 0.0 | 4.8 | 0.00 | 0.00 | 0.00 | 83 | 1011.0 |
| 20260507083058 | -7 | 310 | 3.2 | 8.0 | 0.00 | 0.00 | 0.00 | 82 | 1010.8 |
| 20260507081556 | -6 | 310 | 3.2 | 6.4 | 0.00 | 0.00 | 0.00 | 81 | 1010.8 |
| 20260507080103 | -6 | 310 | 1.6 | 3.2 | 0.00 | 0.00 | 0.00 | 81 | 1010.7 |
| 20260507074610 | -6 | 310 | 1.6 | 3.2 | 0.00 | 0.00 | 0.00 | 81 | 1010.8 |
| 20260507073055 | -5 | 310 | 0.0 | 1.6 | 0.00 | 0.00 | 0.00 | 80 | 1010.8 |
| 20260507071556 | -5 | 310 | 1.6 | 4.8 | 0.00 | 0.00 | 0.00 | 80 | 1010.7 |
| 20260507070107 | -6 | 310 | 3.2 | 8.0 | 0.00 | 0.00 | 0.00 | 79 | 1011.0 |
| 20260507064604 | -6 | 310 | 3.2 | 6.4 | 0.00 | 0.00 | 0.00 | 78 | 1011.0 |
| 20260507063101 | -5 | 310 | 4.8 | 8.0 | 0.00 | 0.00 | 0.00 | 77 | 1011.1 |
| 20260507061555 | -5 | 310 | 3.2 | 6.4 | 0.00 | 0.00 | 0.00 | 76 | 1011.2 |
| 20260507060057 | -5 | 310 | 3.2 | 6.4 | 0.00 | 0.00 | 0.00 | 75 | 1011.3 |
| 20260507054557 | -5 | 310 | 3.2 | 4.8 | 0.00 | 0.00 | 0.00 | 74 | 1011.3 |
| 20260507053058 | -4 | 310 | 3.2 | 6.4 | 0.00 | 0.00 | 0.00 | 72 | 1011.4 |
| 20260507051600 | -3 | 310 | 3.2 | 6.4 | 0.00 | 0.00 | 0.00 | 69 | 1011.4 |
| 20260507050058 | -2 | 310 | 1.6 | 4.8 | 0.00 | 0.00 | 0.00 | 69 | 1011.3 |
| 20260507044555 | -1 | 310 | 4.8 | 6.4 | 0.00 | 0.00 | 0.00 | 62 | 1011.4 |
| 20260507043057 | 0 | 310 | 1.6 | 4.8 | 0.00 | 0.00 | 0.00 | 61 | 1011.3 |
| 20260507041559 | 0 | 310 | 1.6 | 4.8 | 0.00 | 0.00 | 0.00 | 60 | 1011.3 |
| 20260507040110 | 1 | 310 | 4.8 | 6.4 | 0.00 | 0.00 | 0.00 | 57 | 1011.4 |
| 20260507034554 | 1 | 310 | 4.8 | 8.0 | 0.00 | 0.00 | 0.00 | 59 | 1011.4 |
| 20260507033103 | 1 | 310 | 3.2 | 8.0 | 0.00 | 0.00 | 0.00 | 59 | 1011.5 |
| 20260507031609 | 1 | 0 | 0.0 | 1.6 | 0.00 | 0.00 | 0.00 | 62 | 1011.5 |
| 20260507030057 | 1 | 0 | 0.0 | 0.0 | 0.00 | 0.00 | 0.00 | 59 | 1011.7 |
| 20260507024556 | 2 | 0 | 0.0 | 3.2 | 0.00 | 0.00 | 0.00 | 58 | 1011.8 |
| 20260507023054 | 2 | 306 | 3.2 | 11.3 | 0.00 | 0.00 | 0.00 | 55 | 1011.9 |
| 20260507021556 | 3 | 306 | 4.8 | 6.4 | 0.00 | 0.00 | 0.00 | 51 | 1011.6 |
| 20260507020058 | 5 | 306 | 4.8 | 6.4 | 0.00 | 0.00 | 0.00 | 49 | 1011.7 |
| 20260507014557 | 6 | 306 | 4.8 | 11.3 | 0.00 | 0.00 | 0.00 | 44 | 1011.8 |
| 20260507013110 | 7 | 306 | 11.3 | 17.7 | 0.00 | 0.00 | 0.00 | 40 | 1011.9 |
| 20260507011558 | 8 | 302 | 17.7 | 25.7 | 0.00 | 0.00 | 0.00 | 39 | 1011.7 |
| 20260507010104 | 8 | 349 | 8.0 | 19.3 | 0.00 | 0.00 | 0.00 | 38 | 1011.9 |
| 20260507004559 | 8 | 315 | 16.1 | 24.1 | 0.00 | 0.00 | 0.00 | 37 | 1011.9 |
| 20260507003059 | 7 | 308 | 16.1 | 27.4 | 0.00 | 0.00 | 0.00 | 39 | 1012.2 |
| 20260507001600 | 8 | 286 | 19.3 | 24.1 | 0.00 | 0.00 | 0.00 | 36 | 1012.1 |
| 20260507000057 | 9 | 316 | 12.9 | 24.1 | 0.00 | 0.00 | 0.00 | 35 | 1012.2 |
| 20260506234555 | 8 | 360 | 11.3 | 20.9 | 0.00 | 0.00 | 0.00 | 37 | 1012.3 |
| 20260506233108 | 8 | 321 | 19.3 | 24.1 | 0.00 | 0.00 | 0.00 | 37 | 1012.5 |
| 20260506231619 | 8 | 290 | 16.1 | 24.1 | 0.00 | 0.00 | 0.00 | 37 | 1012.6 |
| 20260506230105 | 8 | 325 | 20.9 | 30.6 | 0.00 | 0.00 | 0.00 | 36 | 1012.5 |
| 20260506224559 | 8 | 304 | 12.9 | 25.7 | 0.00 | 0.00 | 0.00 | 37 | 1012.7 |
| 20260506223059 | 8 | 313 | 14.5 | 30.6 | 0.00 | 0.00 | 0.00 | 35 | 1012.7 |
| 20260506221604 | 8 | 296 | 14.5 | 29.0 | 0.00 | 0.00 | 0.00 | 36 | 1012.8 |
| 20260506220100 | 8 | 278 | 16.1 | 27.4 | 0.00 | 0.00 | 0.00 | 36 | 1013.0 |
| 20260506214602 | 8 | 284 | 17.7 | 30.6 | 0.00 | 0.00 | 0.00 | 36 | 1013.0 |
| 20260506213056 | 8 | 289 | 19.3 | 33.8 | 0.00 | 0.00 | 0.00 | 37 | 1013.1 |
| 20260506211609 | 7 | 360 | 11.3 | 24.1 | 0.00 | 0.00 | 0.00 | 37 | 1013.4 |
| 20260506210058 | 8 | 330 | 19.3 | 27.4 | 0.00 | 0.00 | 0.00 | 36 | 1013.6 |
| 20260506204559 | 8 | 317 | 17.7 | 27.4 | 0.00 | 0.00 | 0.00 | 36 | 1013.7 |
| 20260506203055 | 8 | 290 | 17.7 | 30.6 | 0.00 | 0.00 | 0.00 | 37 | 1014.1 |
| 20260506201558 | 7 | 304 | 17.7 | 29.0 | 0.00 | 0.00 | 0.00 | 36 | 1014.1 |
| 20260506200057 | 8 | 306 | 19.3 | 30.6 | 0.00 | 0.00 | 0.00 | 39 | 1014.2 |
| 20260506194556 | 8 | 344 | 19.3 | 32.2 | 0.00 | 0.00 | 0.00 | 36 | 1014.4 |
| 20260506193058 | 8 | 278 | 19.3 | 33.8 | 0.00 | 0.00 | 0.00 | 38 | 1014.6 |
| 20260506191555 | 7 | 319 | 16.1 | 29.0 | 0.00 | 0.00 | 0.00 | 41 | 1014.7 |
| 20260506190059 | 7 | 338 | 11.3 | 22.5 | 0.00 | 0.00 | 0.00 | 40 | 1014.9 |
| 20260506184610 | 7 | 306 | 17.7 | 32.2 | 0.00 | 0.00 | 0.00 | 41 | 1015.0 |
| 20260506183056 | 6 | 5 | 11.3 | 32.2 | 0.00 | 0.00 | 0.00 | 41 | 1015.2 |
| 20260506181556 | 6 | 340 | 16.1 | 27.4 | 0.00 | 0.00 | 0.00 | 43 | 1015.3 |
| 20260506180058 | 6 | 313 | 20.9 | 32.2 | 0.00 | 0.00 | 0.00 | 44 | 1015.6 |
| 20260506174600 | 6 | 13 | 20.9 | 37.0 | 0.00 | 0.00 | 0.00 | 43 | 1015.7 |
| 20260506173112 | 5 | 251 | 20.9 | 33.8 | 0.00 | 0.00 | 0.00 | 47 | 1015.8 |
| 20260506171610 | 5 | 326 | 22.5 | 33.8 | 0.00 | 0.00 | 0.00 | 47 | 1016.1 |
| 20260506170105 | 6 | 334 | 17.7 | 30.6 | 0.00 | 0.00 | 0.00 | 46 | 1016.2 |
| 20260506164618 | 5 | 310 | 24.1 | 32.2 | 0.00 | 0.00 | 0.00 | 47 | 1016.4 |
| 20260506163106 | 5 | 332 | 22.5 | 35.4 | 0.00 | 0.00 | 0.00 | 49 | 1016.5 |
| 20260506161559 | 5 | 336 | 16.1 | 33.8 | 0.00 | 0.00 | 0.00 | 49 | 1016.6 |
| 20260506160112 | 4 | 309 | 20.9 | 33.8 | 0.00 | 0.00 | 0.00 | 51 | 1016.6 |
| 20260506154558 | 4 | 313 | 25.7 | 38.6 | 0.00 | 0.00 | 0.00 | 54 | 1016.6 |
| 20260506153102 | 5 | 313 | 19.3 | 29.0 | 0.00 | 0.00 | 0.00 | 52 | 1016.8 |
| 20260506151558 | 4 | 331 | 20.9 | 35.4 | 0.00 | 0.00 | 0.00 | 52 | 1016.9 |
| 20260506150058 | 3 | 317 | 22.5 | 35.4 | 0.00 | 0.00 | 0.00 | 53 | 1017.0 |